Regional Weather Roundup
Issued by NWS Mt. Holly, NJ

Home | Current Version | Previous Version | Text Only | Print | Product List | Glossary On
Versions: 1 2 3 4 5 6 7 8 9 10 11 12 13 14 15 16 17 18 19 20 21 22 23 24 25 26 27 28 29 30 31 32 33 34 35 36 37 38 39 40 41 42 43 44 45 46 47 48 49 50
000
ASUS41 KPHI 222211
RWRPHI

REGIONAL WEATHER ROUNDUP
NATIONAL WEATHER SERVICE MOUNT HOLLY NJ
600 PM EDT FRI MAY 22 2015

NOTE:  "FAIR" INDICATES FEW OR NO CLOUDS BELOW 12,000 FEET WITH NO
SIGNIFICANT WEATHER AND/OR OBSTRUCTIONS TO VISIBILITY.

 * = STATION DOES NOT REPORT PRECIPITATION (E.G. RAIN, SNOW, ETC.)
        OR FOG.

NJZ015>026-222300-
SOUTHERN NEW JERSEY

CITY           SKY/WX    TMP DP  RH WIND       PRES   REMARKS
POMONA         SUNNY     72  42  34 W16       30.01R
RIO GRANDE*    MOSUNNY   72  45  37 W14G21    30.06S
MILLVILLE      MOSUNNY   72  44  36 W16G24    30.02S
WRIGHTSTOWN    MOSUNNY   74  37  26 W18G28    29.95R
MOUNT HOLLY    MOSUNNY   73  38  27 W14G30    29.99R
TRENTON        CLOUDY    67  44  43 NW15G29   29.99R

$$
NJZ001>014-222300-
NORTHERN NEW JERSEY

CITY           SKY/WX    TMP DP  RH WIND       PRES   REMARKS
SUSSEX         MOSUNNY   69  35  28 NW9       29.98R
ANDOVER*         N/A     67  42  40 MISG      29.98R
MORRISTOWN     PTSUNNY   72  43  35 MISG      29.97R
NEWARK         MOSUNNY   73  40  30 W17G26    29.96R
TETERBORO      MOSUNNY   70  37  29 NW9G22    29.94R
CALDWELL       PTSUNNY   71  38  29 W16G22    29.96S
SOMERVILLE     PTSUNNY   65  43  44 W5        29.97R
ALLAIRE*       PTSUNNY   72  41  33 W15G23    29.97R
TOMS RIVER*    MOSUNNY  N/A N/A N/A W20G31    29.97F

$$
PAZ043-044-047-054-055-060>062-066>071-222300-
EASTERN PENNSYLVANIA

CITY           SKY/WX    TMP DP  RH WIND       PRES   REMARKS
PHILADELPHIA   MOSUNNY   77  36  22 W25G31    30.00S
NORTH PHILA    PTSUNNY   76  34  21 W21G33    30.00R
BLUE BELL      MOSUNNY   73  36  25 W12G21    29.98F
DOYLESTOWN     MOSUNNY   65  44  46 NW7G17    29.99R
QUAKERTOWN*    MOSUNNY   66  46  48 NW5       30.01F
POTTSTOWN      SUNNY     72  36  26 W14G28    30.01R
LANCASTER      SUNNY     70  42  36 NW18G28   30.02R
COATESVILLE    MOSUNNY   70  39  32 W18G28    30.03R
READING        SUNNY     72  34  24 W18G28    30.00R
ALLENTOWN      MOSUNNY   66  49  54 W7        30.00F
MOUNT POCONO   CLOUDY    58  42  55 NW6       29.99F
HAZLETON       CLOUDY    64  39  39 W12G23    30.03S
WILKES BARRE   PTSUNNY   69  25  19 NW17G25   29.99R

$$
DEZALL-MDZ008-012-015-019-020-222300-
DELAWARE AND EASTERN MARYLAND

CITY           SKY/WX    TMP DP  RH WIND       PRES   REMARKS
WILMINGTON     SUNNY     74  41  30 W24G36    30.02S
DOVER          MOSUNNY   72  47  41 W14G23    30.02S
GEORGETOWN     SUNNY     73  43  33 W8G17     30.07S
EASTON         SUNNY     73  46  38 W9G17     30.11S
ABERDEEN       PTSUNNY   75  46  35 W17G29    30.03S
PATUXENT       MOSUNNY   73  43  33 W13       30.10S
OCEAN CITY     SUNNY     72  45  37 W12G20    30.09R
WALLOPS ISLAND SUNNY     71  46  40 SW14G21   30.12S
CAMBRIDGE      SUNNY     73  43  33 W9        30.08S
SALISBURY      SUNNY     71  45  39 SW14      30.09S

$$
PAZ001-021-NYZ056-072-MDZ011-DCZ001-222300-
OTHER NEARBY LOCATIONS

CITY           SKY/WX    TMP DP  RH WIND       PRES   REMARKS
HARRISBURG     MOSUNNY   71  42  35 W17G29    30.03R
STATE COLLEGE  SUNNY    N/A N/A N/A NW12G25   30.09R
WILLIAMSPORT   SUNNY     70  23  17 NW22G29   30.01R
BINGHAMTON     MOSUNNY   57  34  41 N13G24    30.05R
NEW YORK CITY  PTSUNNY   70  38  31 W8G18     29.98R
BALTIMORE      MOSUNNY   72  39  30 W18G30    30.05S
WASHINGTON DC  MOSUNNY   78  41  26 W12G23    30.08S

$$



USA.gov is the U.S. government's official web portal to all federal, state and local government web resources and services.